Regional Weather Roundup
Issued by NWS

Home | Current Version | Previous Version | Text Only | Print | Product List | Glossary On
Versions: 1 2 3 4 5 6 7 8 9 10 11 12 13 14 15 16 17 18 19 20 21 22 23 24 25 26 27
000
ASUS44 KJAN 222310
RWRMS

MISSISSIPPI HOURLY WEATHER ROUNDUP
NATIONAL WEATHER SERVICE JACKSON MS
600 PM CDT TUE MAY 22 2018

NOTE: "FAIR: INDICATES FEW OR NO CLOUDS BELOW 12,000 FEET WITH NO
SIGNIFICANT WEATHER AND/OR OBSTRUCTIONS TO VISIBILITY.

MSZ001>002-007>008-010>013-018>021-025>028-034>036-230000-
NORTHWEST MISSISSIPPI

CITY           SKY/WX    TMP DP  RH WIND       PRES   REMARKS
BATESVILLE       N/A    N/A N/A N/A MISG        N/A
CLARKSDALE     SUNNY     86  70  58 CALM      29.97S HX  90
CLEVELAND      FAIR      85  69  57 CALM      29.96S
GREENWOOD      FAIR      85  72  65 N3        29.96S HX  91
GREENVILLE     FAIR      85  69  58 E5        29.96S
OLIVE BRANCH   CLOUDY    70  70 100 CALM      29.99S
TUNICA           N/A     84  68  58 CALM      29.98S
WINONA         MOCLDY    83  72  70 CALM      29.97S
$$

MSZ003>006-009-014>017-022>024-029>033-037>039-230000-
NORTHEAST MISSISSIPPI

CITY           SKY/WX    TMP DP  RH WIND       PRES   REMARKS
ABERDEEN         N/A     88  77  70 NW5       29.98R HX 100
COLUMBUS AFB   FAIR      83  69  62 CALM      29.97R
CORINTH        FAIR      79  68  69 CALM      29.99S
GOLDN TRIANGLE FAIR      86  70  58 CALM      29.98R HX  90
STARKVILLE     FAIR      82  70  65 CALM      29.99R
TUPELO         FAIR      79  68  69 N6        29.98S
$$

MSZ040-058-230000-
CENTRAL MISSISSIPPI

CITY           SKY/WX    TMP DP  RH WIND       PRES   REMARKS
JACKSON INTL   LGT RAIN  76  70  82 S7        29.98R
JACKSON HAWKNS FAIR      79  68  69 S8        29.98R
MADISON        FAIR      77  72  83 CALM      29.97S
MERIDIAN KEY   FAIR      83  69  62 N3        29.98S
MERIDIAN NAS   PTSUNNY   82  73  74 CALM      29.98F
RAYMOND        FAIR      79  73  83 S3        29.97R
VICKSBURG VKS  FOG       72  70  94 CALM        N/A  VSB 1
$$

MSZ059>079-230000-
SOUTH MISSISSIPPI

CITY           SKY/WX    TMP DP  RH WIND       PRES   REMARKS
COLUMBIA       FAIR      79  68  69 CALM      30.02R
HATTIESBURG    CLOUDY    73  69  87 S14G21    30.01R THUNDER
LAUREL         FAIR      76  73  91 NW3       29.99R
MCCOMB         FAIR      83  68  60 E5        29.97S
NATCHEZ        FAIR      86  68  54 SE8       29.96S
PINE BELT      TSTM      77  69  76 S5        30.00R
$$

MSZ080>082-230000-
COASTAL MISSISSIPPI

CITY           SKY/WX    TMP DP  RH WIND       PRES   REMARKS
BAY ST LOUIS   MOSUNNY   86  72  62 S9        29.96  HX  92
BILOXI         FAIR      85  71  63 S9        29.97R HX  90
PASCAGOULA     FAIR      84  70  62 S6        29.98R
GULFPORT       FAIR      86  70  58 S8        29.96S HX  90
$$

LAZ007>009-015>016-023>026-230000-
NORTHEAST LOUISIANA

CITY           SKY/WX    TMP DP  RH WIND       PRES   REMARKS
TALLULAH/VBURG LGT RAIN  80  70  71 SE8       29.97R
VIDALIA        FAIR      86  72  61 SE7       29.93S HX  92
$$




USA.gov is the U.S. government's official web portal to all federal, state and local government web resources and services.